Albion, NE

10:52 PM CDT on July 27, 2017 (GMT -0500)
Albion Municipal

Weather History for KBVN - February, 2012

Change the Weather History Date:

Monday, February 6, 2012

  Actual Average (KOFK) Record (KOFK)
Temperature  
Mean Temperature 30 °F -  
Max Temperature 41 °F 30 °F 58 °F (1957)
Min Temperature 18 °F 9 °F -25 °F (1905)
Degree Days  
Heating Degree Days 36    
Moisture  
Dew Point 29 °F    
Average Humidity 74    
Maximum Humidity 92    
Minimum Humidity 65    
Precipitation  
Precipitation 0.00 in - - ()
Sea Level Pressure  
Sea Level Pressure 30.17 in    
Wind  
Wind Speed 1 mph (West)    
Max Wind Speed 7 mph    
Max Gust Speed -    
Visibility 10 miles    
Events Fog    
Averages and records for this station are not official NWS values.
T = Trace of Precipitation, MM = Missing Value Source: NWS Daily Summary

Daily Weather History Graph

Daily Weather History Graph

Search for Another Location

Airport or City:

Trip Planner

Search our weather history database for the weather conditions in past years. The results will help you decide how hot, cold, wet, or windy it might be!

Date:

Astronomy

Feb. 06, 2012 Rise Set
Actual Time 7:39 AM CST 5:53 PM CST
Civil Twilight 7:10 AM CST 6:22 PM CST
Nautical Twilight 6:37 AM CST 6:55 PM CST
Astronomical Twilight 6:04 AM CST 7:28 PM CST
Moon 4:58 PM CST (2/6) 6:32 AM CST (2/6)
Length of Visible Light 11h 12m
Length of Day
10h 14m
Waxing Gibbous, 98% of the Moon is Illuminated
Feb 6
Waxing Gibbous
Feb 7
Full
Feb 14
Last Quarter
Feb 21
New
Feb 29
First Quarter

Hourly Weather History & Observations

Time (CST) Temp. Windchill Dew Point Humidity Pressure Visibility Wind Dir Wind Speed Gust Speed Precip Events Conditions
12:15 AM 18.9 °F - 16.5 °F 91% 30.25 in 0.5 mi Calm Calm - N/A Fog Light Freezing Fog
12:35 AM - - - N/A% 30.25 in 0.2 mi Calm Calm - N/A Fog Light Freezing Fog
12:55 AM - - - N/A% 30.25 in 7.0 mi Calm Calm - N/A   Clear
1:15 AM - - - N/A% 30.24 in 7.0 mi Calm Calm - N/A   Clear
1:35 AM - - - N/A% 30.24 in 10.0 mi Calm Calm - N/A   Clear
1:55 AM - - - N/A% 30.23 in 10.0 mi Calm Calm - N/A   Clear
2:15 AM - - - N/A% 30.22 in 10.0 mi Calm Calm - N/A   Clear
2:35 AM - - - N/A% 30.22 in 10.0 mi Calm Calm - N/A   Clear
2:55 AM - - - N/A% 30.22 in 10.0 mi Calm Calm - N/A   Clear
3:15 AM - - - N/A% 30.22 in 10.0 mi Calm Calm - N/A   Clear
3:35 AM - - - N/A% 30.21 in 10.0 mi Calm Calm - N/A   Clear
3:55 AM - - - N/A% 30.21 in 10.0 mi Calm Calm - N/A   Clear
4:15 AM - - - N/A% 30.20 in 10.0 mi Calm Calm - N/A   Clear
4:35 AM - - - N/A% 30.20 in 10.0 mi Calm Calm - N/A   Clear
4:55 AM - - - N/A% 30.20 in 10.0 mi Calm Calm - N/A   Clear
5:15 AM - - - N/A% 30.19 in 10.0 mi Calm Calm - N/A   Clear
5:35 AM - - - N/A% 30.19 in 10.0 mi Calm Calm - N/A   Clear
5:55 AM - - - N/A% 30.19 in 10.0 mi Calm Calm - N/A   Clear
6:15 AM - - - N/A% 30.18 in 10.0 mi Calm Calm - N/A   Clear
6:35 AM - - - N/A% 30.18 in 10.0 mi Calm Calm - N/A   Clear
6:55 AM - - - N/A% 30.18 in 10.0 mi Calm Calm - N/A   Clear
7:15 AM - - - N/A% 30.18 in 10.0 mi Calm Calm - N/A   Clear
7:35 AM - - - N/A% 30.18 in 10.0 mi Calm Calm - N/A   Clear
7:55 AM - - - N/A% 30.18 in 7.0 mi Calm Calm - N/A   Clear
8:15 AM - - - N/A% 30.18 in 10.0 mi Calm Calm - N/A   Clear
8:35 AM - - - N/A% 30.19 in 10.0 mi Calm Calm - N/A   Clear
8:55 AM - - - N/A% 30.19 in 7.0 mi Calm Calm - N/A   Clear
9:15 AM - - - N/A% 30.19 in 10.0 mi Calm Calm - N/A   Clear
9:35 AM - - - N/A% 30.19 in 10.0 mi NW 4.6 mph - N/A   Clear
9:55 AM 24.8 °F 19.1 °F 22.8 °F 92% 30.19 in 10.0 mi NW 4.6 mph - N/A   Clear
10:15 AM 28.6 °F 22.4 °F 25.3 °F 88% 30.18 in 10.0 mi NW 5.8 mph - N/A   Clear
10:35 AM 31.8 °F 27.3 °F 25.7 °F 78% 30.18 in 10.0 mi NW 4.6 mph - N/A   Clear
10:55 AM 32.9 °F - 26.2 °F 76% 30.18 in 10.0 mi Calm Calm - N/A   Clear
11:15 AM 35.4 °F 32.6 °F 25.7 °F 68% 30.17 in 10.0 mi NW 3.5 mph - N/A   Clear
11:35 AM 36.9 °F - 26.6 °F 66% 30.17 in 10.0 mi Calm Calm - N/A   Clear
11:55 AM 36.7 °F 31.2 °F 26.2 °F 66% 30.16 in 10.0 mi West 6.9 mph - N/A   Clear
12:15 PM 37.8 °F 33.3 °F 27.1 °F 66% 30.15 in 10.0 mi West 5.8 mph - N/A   Clear
12:35 PM 38.5 °F 35.0 °F 28.2 °F 67% 30.14 in 10.0 mi West 4.6 mph - N/A   Clear
12:55 PM 39.0 °F 34.8 °F 28.4 °F 66% 30.13 in 10.0 mi West 5.8 mph - N/A   Clear
1:15 PM 39.2 °F 35.9 °F 28.9 °F 67% 30.13 in 10.0 mi West 4.6 mph - N/A   Clear
1:35 PM 40.1 °F 36.1 °F 29.7 °F 66% 30.12 in 10.0 mi SW 5.8 mph - N/A   Clear
1:55 PM 40.3 °F 35.5 °F 29.5 °F 65% 30.11 in 10.0 mi WSW 6.9 mph - N/A   Clear
2:15 PM 40.5 °F 37.3 °F 29.7 °F 65% 30.11 in 10.0 mi WSW 4.6 mph - N/A   Clear
2:35 PM 40.5 °F 36.5 °F 30.0 °F 66% 30.11 in 10.0 mi WSW 5.8 mph - N/A   Clear
2:55 PM 41.0 °F 36.4 °F 30.2 °F 65% 30.10 in 10.0 mi SW 6.9 mph - N/A   Clear
3:15 PM 41.0 °F 36.4 °F 30.7 °F 67% 30.10 in 10.0 mi SW 6.9 mph - N/A   Clear
3:35 PM 41.2 °F 37.3 °F 30.2 °F 65% 30.10 in 10.0 mi WSW 5.8 mph - N/A   Clear
3:55 PM 41.2 °F 39.2 °F 30.4 °F 65% 30.10 in 10.0 mi WSW 3.5 mph - N/A   Clear
4:35 PM 40.1 °F - 30.2 °F 68% 30.10 in 10.0 mi Calm Calm - N/A   Clear
4:55 PM 39.4 °F - 30.2 °F 70% 30.10 in 10.0 mi Calm Calm - N/A   Clear
5:15 PM 37.9 °F - 30.6 °F 75% 30.11 in 10.0 mi Calm Calm - N/A   Clear
5:55 PM 36.5 °F - 30.0 °F 77% 30.11 in 10.0 mi Calm Calm - N/A   Clear
6:15 PM 36.7 °F - 29.8 °F 76% 30.11 in 10.0 mi Calm Calm - N/A   Clear
6:35 PM 36.5 °F 32.7 °F 30.2 °F 78% 30.12 in 10.0 mi WNW 4.6 mph - N/A   Mostly Cloudy
6:55 PM 36.0 °F 33.3 °F 30.4 °F 80% 30.12 in 10.0 mi North 3.5 mph - N/A   Overcast
7:15 PM 35.8 °F - 30.2 °F 80% 30.12 in 10.0 mi Calm Calm - N/A   Mostly Cloudy
7:35 PM 34.5 °F 31.6 °F 30.7 °F 86% 30.13 in 10.0 mi West 3.5 mph - N/A   Scattered Clouds
7:55 PM 34.5 °F - 30.6 °F 85% 30.14 in 10.0 mi Calm Calm - N/A   Mostly Cloudy
8:15 PM 34.9 °F 32.0 °F 30.4 °F 84% 30.15 in 10.0 mi NNW 3.5 mph - N/A   Scattered Clouds
8:35 PM 34.7 °F 31.8 °F 30.2 °F 84% 30.15 in 10.0 mi NW 3.5 mph - N/A   Clear
8:55 PM 34.3 °F 28.4 °F 29.5 °F 82% 30.16 in 10.0 mi NNW 6.9 mph - N/A   Clear
9:15 PM 35.4 °F 28.4 °F 29.8 °F 80% 30.17 in 10.0 mi NNW 9.2 mph - N/A   Clear
9:35 PM 36.5 °F 28.2 °F 30.0 °F 77% 30.18 in 10.0 mi North 12.7 mph - N/A   Mostly Cloudy
9:55 PM 35.6 °F 26.2 °F 29.8 °F 80% 30.19 in 10.0 mi North 15.0 mph 24.2 mph N/A   Overcast
10:15 PM 34.7 °F 23.7 °F 29.3 °F 81% 30.20 in 10.0 mi North 19.6 mph 26.5 mph N/A   Overcast
10:35 PM 32.4 °F 20.6 °F 28.4 °F 85% 30.21 in 10.0 mi North 19.6 mph 25.3 mph N/A   Overcast
10:55 PM 32.0 °F 20.5 °F 28.0 °F 85% 30.22 in 10.0 mi North 18.4 mph 24.2 mph N/A   Overcast
11:15 PM 31.8 °F 19.9 °F 27.5 °F 84% 30.24 in 10.0 mi North 19.6 mph 26.5 mph N/A   Overcast
11:35 PM 31.5 °F 20.1 °F 27.3 °F 85% 30.25 in 10.0 mi North 17.3 mph 27.6 mph N/A   Overcast
11:55 PM 30.9 °F 19.1 °F 26.6 °F 84% 30.25 in 10.0 mi North 18.4 mph 27.6 mph N/A   Overcast